AZG510 ESGG-UBBB

Flight info

Callsign AZG510
Flight time 4h 45m
Altitude 33000
Route LUKAX DCT PENOR N133 LENOV DCT KEKED DCT NARKA DCT BULEN/N0479F350 L605 RIXEN UL605 BAG UL333 SIV UL615 ERZ UN161 INDUR N161 EDATA DCT INSAN
Aircraft B77L/H-SDE1E2E3FGHIJ2J3J4J5M1RWXY/LB1D1

Departure

Time 2026-05-06 13:47
Airport Göteborg Landvetter Airport (ESGG)

Arrival

Time 2026-05-06 18:33
Airport Heydar Aliyev International Airport (UBBB)
Time Latitude Longitude Altitude Speed Heading
2026-05-06 13:08 57.67212 12.29680 533 ft 0 kts 116°
2026-05-06 13:35 57.67214 12.29673 536 ft 4 kts 110°
2026-05-06 13:35 57.67223 12.29637 558 ft 4 kts 131°
2026-05-06 13:35 57.67241 12.29613 527 ft 4 kts 170°
2026-05-06 13:36 57.67265 12.29614 525 ft 4 kts 198°
2026-05-06 13:36 57.67279 12.29623 520 ft 2 kts 205°
2026-05-06 13:41 57.67278 12.29623 520 ft 0 kts 205°
2026-05-06 13:41 57.67275 12.29620 521 ft 2 kts 204°
2026-05-06 13:42 57.67255 12.29603 521 ft 5 kts 204°
2026-05-06 13:42 57.67219 12.29567 520 ft 7 kts 220°
2026-05-06 13:42 57.67221 12.29451 517 ft 11 kts 291°
2026-05-06 13:42 57.67257 12.29315 518 ft 12 kts 303°
2026-05-06 13:43 57.67334 12.29287 519 ft 13 kts 20°
2026-05-06 13:43 57.67390 12.29333 521 ft 0 kts 25°
2026-05-06 13:43 57.67413 12.29351 521 ft 9 kts 17°
2026-05-06 13:43 57.67448 12.29322 521 ft 3 kts 307°
2026-05-06 13:44 57.67455 12.29283 520 ft 0 kts 279°
2026-05-06 13:45 57.67456 12.29282 520 ft 1 kts 279°
2026-05-06 13:45 57.67444 12.29079 518 ft 16 kts 244°
2026-05-06 13:45 57.67383 12.28978 520 ft 0 kts 206°
2026-05-06 13:46 57.67376 12.28971 520 ft 10 kts 206°
2026-05-06 13:46 57.67085 12.28704 526 ft 83 kts 206°
2026-05-06 13:46 57.66357 12.28041 520 ft 147 kts 206°
2026-05-06 13:47 57.65308 12.26997 588 ft 188 kts 208°
2026-05-06 13:47 57.64079 12.25911 993 ft 204 kts 206°
2026-05-06 13:47 57.62735 12.24837 1496 ft 216 kts 201°
2026-05-06 13:47 57.61244 12.24182 2185 ft 223 kts 186°
2026-05-06 13:48 57.59724 12.24221 3033 ft 216 kts 171°
2026-05-06 13:48 57.58302 12.25091 3716 ft 214 kts 152°
2026-05-06 13:48 57.57089 12.26697 4361 ft 218 kts 134°
2026-05-06 13:48 57.56227 12.29096 4612 ft 236 kts 104°
2026-05-06 13:49 57.56327 12.32207 4900 ft 254 kts 66°
2026-05-06 13:49 57.57245 12.35063 5377 ft 261 kts 63°
2026-05-06 13:49 57.57919 12.38225 5981 ft 269 kts 72°
2026-05-06 13:49 57.58560 12.41519 6762 ft 271 kts 70°
2026-05-06 13:50 57.59249 12.44811 7525 ft 274 kts 69°
2026-05-06 13:50 57.59957 12.48136 8242 ft 278 kts 69°
2026-05-06 13:50 57.60674 12.51504 8962 ft 282 kts 69°
2026-05-06 13:50 57.61396 12.54921 9691 ft 285 kts 69°
2026-05-06 13:51 57.62130 12.58398 10275 ft 292 kts 69°
2026-05-06 13:51 57.62818 12.62089 10541 ft 313 kts 73°
2026-05-06 13:51 57.63484 12.66128 10728 ft 338 kts 73°
2026-05-06 13:51 57.64182 12.70473 10933 ft 362 kts 73°
2026-05-06 13:52 57.64925 12.75068 11407 ft 376 kts 73°
2026-05-06 13:52 57.65695 12.79801 12071 ft 386 kts 73°
2026-05-06 13:52 57.66488 12.84651 12911 ft 393 kts 73°
2026-05-06 13:52 57.67295 12.89584 13731 ft 400 kts 73°
2026-05-06 13:53 57.68116 12.94595 14424 ft 407 kts 73°
2026-05-06 13:53 57.68950 12.99698 15143 ft 413 kts 73°
2026-05-06 13:53 57.69794 13.04872 15866 ft 420 kts 73°
2026-05-06 13:53 57.70386 13.10207 16389 ft 423 kts 90°
2026-05-06 13:54 57.69970 13.15655 17009 ft 427 kts 110°
2026-05-06 13:54 57.68693 13.20631 17748 ft 426 kts 128°
2026-05-06 13:54 57.66813 13.24875 18362 ft 425 kts 135°
2026-05-06 13:54 57.64809 13.29014 18903 ft 432 kts 136°
2026-05-06 13:55 57.62769 13.33172 19574 ft 435 kts 137°
2026-05-06 13:55 57.60742 13.37301 20247 ft 438 kts 137°
2026-05-06 13:55 57.58655 13.41575 20892 ft 443 kts 137°
2026-05-06 13:55 57.56603 13.45794 21483 ft 448 kts 137°
2026-05-06 13:56 57.54506 13.50124 22093 ft 452 kts 137°
2026-05-06 13:56 57.52387 13.54510 22723 ft 456 kts 137°
2026-05-06 13:56 57.50256 13.58923 23343 ft 461 kts 137°
2026-05-06 13:56 57.48107 13.63370 23870 ft 464 kts 137°
2026-05-06 13:57 57.45937 13.67856 24462 ft 466 kts 137°
2026-05-06 13:57 57.43773 13.72325 25068 ft 467 kts 137°
2026-05-06 13:57 57.41594 13.76813 25663 ft 468 kts 138°
2026-05-06 13:57 57.39406 13.81310 26236 ft 470 kts 138°
2026-05-06 13:58 57.37208 13.85813 26778 ft 472 kts 138°
2026-05-06 13:58 57.35000 13.90330 27317 ft 474 kts 138°
2026-05-06 13:58 57.32780 13.94862 27862 ft 476 kts 138°
2026-05-06 13:58 57.30547 13.99411 28399 ft 478 kts 138°
2026-05-06 13:59 57.28308 14.03963 28898 ft 479 kts 138°
2026-05-06 13:59 57.26059 14.08529 29382 ft 481 kts 138°
2026-05-06 13:59 57.23802 14.13101 29839 ft 483 kts 138°
2026-05-06 13:59 57.21536 14.17682 30312 ft 482 kts 138°
2026-05-06 14:00 57.19283 14.22234 30849 ft 479 kts 138°
2026-05-06 14:00 57.17042 14.26754 31401 ft 476 kts 138°
2026-05-06 14:00 57.14839 14.31186 31908 ft 474 kts 138°
2026-05-06 14:00 57.12615 14.35651 32418 ft 471 kts 138°
2026-05-06 14:01 57.10406 14.40073 32896 ft 469 kts 138°
2026-05-06 14:01 57.08197 14.44486 32904 ft 469 kts 138°
2026-05-06 14:01 57.03789 14.53267 32972 ft 468 kts 138°
2026-05-06 14:02 57.01583 14.57647 33372 ft 466 kts 138°
2026-05-06 14:02 56.99393 14.61993 33953 ft 462 kts 138°
2026-05-06 14:02 56.97219 14.66299 34347 ft 460 kts 138°
2026-05-06 14:02 56.95040 14.70604 34552 ft 462 kts 138°
2026-05-06 14:03 56.92841 14.74937 34755 ft 464 kts 138°
2026-05-06 14:03 56.90639 14.79268 34854 ft 467 kts 137°
2026-05-06 14:03 56.86209 14.87962 34936 ft 466 kts 137°
2026-05-06 14:04 56.82534 14.95157 34930 ft 464 kts 137°
2026-05-06 14:04 56.77418 15.05133 34926 ft 462 kts 137°
2026-05-06 14:05 56.73742 15.12274 34933 ft 461 kts 137°
2026-05-06 14:05 56.69341 15.20790 34932 ft 461 kts 137°
2026-05-06 14:06 56.64955 15.29248 34937 ft 462 kts 137°
2026-05-06 14:06 56.60523 15.37763 34942 ft 464 kts 137°
2026-05-06 14:07 56.56076 15.46278 34940 ft 466 kts 137°
2026-05-06 14:07 56.51594 15.54828 34937 ft 468 kts 137°
2026-05-06 14:08 56.47096 15.63378 34950 ft 470 kts 137°
2026-05-06 14:08 56.42605 15.71882 34949 ft 471 kts 137°
2026-05-06 14:09 56.38071 15.80438 34943 ft 472 kts 137°
2026-05-06 14:09 56.33524 15.88985 34947 ft 472 kts 137°
2026-05-06 14:10 56.28973 15.97509 34945 ft 472 kts 137°
2026-05-06 14:10 56.24411 16.06022 34946 ft 472 kts 137°
2026-05-06 14:11 56.19846 16.14512 34943 ft 472 kts 137°
2026-05-06 14:11 56.15282 16.22967 34936 ft 471 kts 137°
2026-05-06 14:12 56.10715 16.31397 34935 ft 470 kts 137°
2026-05-06 14:12 56.06157 16.39779 34935 ft 469 kts 137°
2026-05-06 14:13 56.01627 16.48080 34932 ft 468 kts 137°
2026-05-06 14:13 55.97076 16.56391 34934 ft 467 kts 137°
2026-05-06 14:14 55.92530 16.64664 34928 ft 466 kts 137°
2026-05-06 14:14 55.87984 16.72906 34926 ft 465 kts 137°
2026-05-06 14:15 55.83441 16.81113 34926 ft 465 kts 137°
2026-05-06 14:15 55.78894 16.89300 34917 ft 465 kts 137°
2026-05-06 14:16 55.74344 16.97465 34920 ft 465 kts 137°
2026-05-06 14:16 55.69786 17.05618 34922 ft 465 kts 137°
2026-05-06 14:17 55.65107 17.13417 34912 ft 463 kts 145°
2026-05-06 14:17 55.59716 17.19557 34912 ft 460 kts 155°
2026-05-06 14:18 55.53907 17.24280 34913 ft 460 kts 158°
2026-05-06 14:18 55.48048 17.28914 34900 ft 462 kts 158°
2026-05-06 14:19 55.42179 17.33604 34907 ft 464 kts 158°
2026-05-06 14:19 55.36283 17.38332 34895 ft 467 kts 158°
2026-05-06 14:20 55.30365 17.43065 34895 ft 467 kts 158°
2026-05-06 14:20 55.24446 17.47782 34881 ft 467 kts 158°
2026-05-06 14:21 55.18514 17.52467 34879 ft 468 kts 159°
2026-05-06 14:21 55.12540 17.57045 34873 ft 467 kts 159°
2026-05-06 14:22 55.06581 17.61590 34885 ft 467 kts 160°
2026-05-06 14:22 55.00635 17.66133 34873 ft 466 kts 160°
2026-05-06 14:23 54.94723 17.70672 34864 ft 466 kts 159°
2026-05-06 14:23 54.88815 17.75356 34864 ft 467 kts 159°
2026-05-06 14:24 54.82906 17.80028 34848 ft 467 kts 160°
2026-05-06 14:24 54.76980 17.84668 34842 ft 467 kts 160°
2026-05-06 14:25 54.71056 17.89270 34837 ft 467 kts 160°
2026-05-06 14:25 54.65164 17.93832 34834 ft 466 kts 160°
2026-05-06 14:26 54.59239 17.98409 34836 ft 467 kts 160°
2026-05-06 14:26 54.53303 18.02982 34828 ft 467 kts 160°
2026-05-06 14:27 54.47366 18.07543 34824 ft 467 kts 160°
2026-05-06 14:27 54.41427 18.12089 34832 ft 467 kts 160°
2026-05-06 14:28 54.35481 18.16628 34824 ft 468 kts 161°
2026-05-06 14:28 54.29535 18.21151 34820 ft 468 kts 161°
2026-05-06 14:29 54.23576 18.25631 34816 ft 467 kts 161°
2026-05-06 14:29 54.17620 18.30079 34816 ft 467 kts 161°
2026-05-06 14:30 54.11660 18.34520 34805 ft 467 kts 161°
2026-05-06 14:30 54.05702 18.38951 34791 ft 467 kts 162°
2026-05-06 14:31 53.99750 18.43364 34774 ft 466 kts 162°
2026-05-06 14:31 53.93837 18.47735 34770 ft 466 kts 162°
2026-05-06 14:32 53.87900 18.52110 34762 ft 466 kts 162°
2026-05-06 14:32 53.81964 18.56473 34763 ft 464 kts 162°
2026-05-06 14:33 53.76044 18.60809 34756 ft 463 kts 162°
2026-05-06 14:33 53.70142 18.65100 34754 ft 461 kts 162°
2026-05-06 14:34 53.64235 18.69364 34748 ft 461 kts 162°
2026-05-06 14:34 53.58336 18.73616 34745 ft 460 kts 162°
2026-05-06 14:35 53.52447 18.77831 34750 ft 459 kts 164°
2026-05-06 14:35 53.46428 18.81181 34741 ft 455 kts 168°
2026-05-06 14:36 53.40414 18.84303 34759 ft 455 kts 168°
2026-05-06 14:36 53.34358 18.87481 34752 ft 457 kts 168°
2026-05-06 14:37 53.28282 18.90681 34750 ft 457 kts 168°
2026-05-06 14:37 53.22206 18.93873 34735 ft 458 kts 168°
2026-05-06 14:38 53.16113 18.97048 34741 ft 458 kts 169°
2026-05-06 14:38 53.10016 19.00180 34738 ft 459 kts 169°
2026-05-06 14:39 53.03949 19.03308 34737 ft 460 kts 169°
2026-05-06 14:39 52.97827 19.06474 34737 ft 461 kts 169°
2026-05-06 14:40 52.91698 19.09637 34731 ft 461 kts 169°
2026-05-06 14:40 52.85562 19.12791 34739 ft 461 kts 169°
2026-05-06 14:41 52.79444 19.15925 34733 ft 461 kts 169°
2026-05-06 14:41 52.73311 19.19058 34732 ft 460 kts 169°
2026-05-06 14:42 52.67204 19.22168 34730 ft 459 kts 169°
2026-05-06 14:42 52.61098 19.25269 34730 ft 459 kts 169°
2026-05-06 14:43 52.54995 19.28359 34741 ft 458 kts 169°
2026-05-06 14:43 52.48892 19.31435 34735 ft 458 kts 169°
2026-05-06 14:44 52.42835 19.34480 34736 ft 458 kts 169°
2026-05-06 14:45 52.33691 19.39063 34732 ft 458 kts 169°
2026-05-06 14:45 52.27595 19.42108 34728 ft 458 kts 169°
2026-05-06 14:46 52.21487 19.45149 34733 ft 458 kts 169°
2026-05-06 14:46 52.15385 19.48180 34736 ft 458 kts 169°
2026-05-06 14:47 52.09325 19.51181 34736 ft 458 kts 168°
2026-05-06 14:47 52.03218 19.54196 34748 ft 459 kts 168°
2026-05-06 14:48 51.97100 19.57209 34752 ft 459 kts 168°
2026-05-06 14:48 51.90980 19.60216 34757 ft 459 kts 168°
2026-05-06 14:49 51.84857 19.63220 34764 ft 460 kts 168°
2026-05-06 14:49 51.78765 19.66218 34761 ft 461 kts 167°
2026-05-06 14:50 51.72668 19.69466 34763 ft 461 kts 167°
2026-05-06 14:50 51.66571 19.72713 34771 ft 461 kts 167°
2026-05-06 14:51 51.60465 19.75940 34769 ft 461 kts 167°
2026-05-06 14:51 51.54399 19.79141 34771 ft 461 kts 167°
2026-05-06 14:52 51.48289 19.82338 34764 ft 461 kts 167°
2026-05-06 14:52 51.43208 19.84967 34771 ft 461 kts 167°
2026-05-06 14:53 51.37095 19.88170 34769 ft 462 kts 167°
2026-05-06 14:53 51.30985 19.91355 34776 ft 462 kts 167°
2026-05-06 14:54 51.24876 19.94518 34781 ft 462 kts 167°
2026-05-06 14:54 51.18747 19.97668 34780 ft 462 kts 167°
2026-05-06 14:55 51.12615 20.00775 34788 ft 462 kts 167°
2026-05-06 14:55 51.06480 20.03902 34778 ft 463 kts 167°
2026-05-06 14:56 51.00341 20.07066 34794 ft 464 kts 167°
2026-05-06 14:56 50.94200 20.10218 34795 ft 464 kts 167°
2026-05-06 14:57 50.88045 20.13354 34801 ft 465 kts 167°
2026-05-06 14:57 50.81876 20.16465 34794 ft 466 kts 167°
2026-05-06 14:58 50.75735 20.19557 34798 ft 467 kts 167°
2026-05-06 14:58 50.69544 20.22670 34803 ft 467 kts 167°
2026-05-06 14:59 50.63345 20.25856 34811 ft 469 kts 164°
2026-05-06 14:59 50.57237 20.29527 34816 ft 470 kts 163°
2026-05-06 15:00 50.51114 20.33187 34814 ft 471 kts 164°
2026-05-06 15:00 50.44974 20.36812 34820 ft 471 kts 164°
2026-05-06 15:01 50.38828 20.40430 34820 ft 472 kts 164°
2026-05-06 15:01 50.32674 20.44050 34822 ft 472 kts 164°
2026-05-06 15:02 50.26565 20.47633 34818 ft 472 kts 163°
2026-05-06 15:02 50.20419 20.51230 34832 ft 472 kts 163°
2026-05-06 15:03 50.14272 20.54817 34819 ft 472 kts 163°
2026-05-06 15:03 50.08116 20.58399 34830 ft 472 kts 163°
2026-05-06 15:04 50.01964 20.61969 34838 ft 472 kts 163°
2026-05-06 15:04 49.95807 20.65531 34833 ft 472 kts 163°
2026-05-06 15:05 49.89647 20.69086 34827 ft 473 kts 163°
2026-05-06 15:05 49.83468 20.72643 34836 ft 473 kts 163°
2026-05-06 15:06 49.77331 20.76165 34838 ft 474 kts 163°
2026-05-06 15:06 49.71143 20.79708 34847 ft 474 kts 163°
2026-05-06 15:07 49.64951 20.83243 34857 ft 475 kts 163°
2026-05-06 15:07 49.58740 20.86778 34842 ft 476 kts 163°
2026-05-06 15:08 49.52523 20.90309 34860 ft 476 kts 163°
2026-05-06 15:08 49.46298 20.93836 34863 ft 477 kts 163°
2026-05-06 15:09 49.40062 20.97359 34866 ft 478 kts 163°
2026-05-06 15:09 49.33809 21.00841 34860 ft 477 kts 166°
2026-05-06 15:10 49.27440 21.03279 34869 ft 474 kts 171°
2026-05-06 15:10 49.20997 21.05453 34878 ft 474 kts 171°
2026-05-06 15:11 49.14548 21.07663 34872 ft 475 kts 171°
2026-05-06 15:11 49.08095 21.09904 34877 ft 476 kts 171°
2026-05-06 15:12 49.01634 21.12153 34888 ft 476 kts 171°
2026-05-06 15:12 48.95171 21.14395 34890 ft 477 kts 171°
2026-05-06 15:13 48.88699 21.16629 34902 ft 477 kts 171°
2026-05-06 15:13 48.82228 21.18860 34905 ft 477 kts 171°
2026-05-06 15:14 48.75785 21.21075 34910 ft 477 kts 171°
2026-05-06 15:14 48.69308 21.23295 34905 ft 477 kts 171°
2026-05-06 15:15 48.62824 21.25513 34909 ft 477 kts 171°
2026-05-06 15:15 48.56339 21.27725 34915 ft 477 kts 171°
2026-05-06 15:16 48.49881 21.30124 34907 ft 480 kts 167°
2026-05-06 15:16 48.43488 21.33059 34904 ft 481 kts 166°
2026-05-06 15:17 48.37093 21.36019 34901 ft 481 kts 166°
2026-05-06 15:17 48.30686 21.38949 34901 ft 481 kts 167°
2026-05-06 15:18 48.24280 21.41855 34906 ft 481 kts 167°
2026-05-06 15:18 48.17861 21.44756 34909 ft 482 kts 167°
2026-05-06 15:19 48.11432 21.47654 34910 ft 483 kts 167°
2026-05-06 15:19 48.04994 21.50549 34908 ft 484 kts 167°
2026-05-06 15:20 47.98541 21.53444 34911 ft 484 kts 167°
2026-05-06 15:20 47.92084 21.56332 34911 ft 485 kts 167°
2026-05-06 15:21 47.85656 21.59201 34906 ft 485 kts 167°
2026-05-06 15:21 47.79172 21.62087 34912 ft 486 kts 167°
2026-05-06 15:22 47.72675 21.64971 34924 ft 487 kts 167°
2026-05-06 15:22 47.66221 21.67829 34934 ft 487 kts 167°
2026-05-06 15:23 47.59713 21.70703 34936 ft 488 kts 167°
2026-05-06 15:23 47.53198 21.73573 34940 ft 488 kts 167°
2026-05-06 15:24 47.46675 21.76440 34936 ft 489 kts 167°
2026-05-06 15:24 47.40149 21.79300 34938 ft 489 kts 167°
2026-05-06 15:25 47.33620 21.82156 34930 ft 489 kts 167°
2026-05-06 15:25 47.27131 21.85294 34925 ft 493 kts 159°
2026-05-06 15:26 47.21148 21.90338 34940 ft 499 kts 146°
2026-05-06 15:26 47.15771 21.96835 34940 ft 501 kts 142°
2026-05-06 15:27 47.10460 22.03461 34935 ft 501 kts 142°
2026-05-06 15:27 47.05122 22.10043 34936 ft 501 kts 143°
2026-05-06 15:28 46.99767 22.16565 34933 ft 501 kts 143°
2026-05-06 15:28 46.94429 22.23028 34949 ft 501 kts 143°
2026-05-06 15:29 46.89058 22.29515 34955 ft 501 kts 143°
2026-05-06 15:29 46.83687 22.35987 34959 ft 501 kts 143°
2026-05-06 15:30 46.78304 22.42459 34964 ft 501 kts 143°
2026-05-06 15:30 46.72922 22.48913 34962 ft 501 kts 143°
2026-05-06 15:31 46.67531 22.55360 34962 ft 501 kts 143°
2026-05-06 15:31 46.62133 22.61798 34966 ft 502 kts 143°
2026-05-06 15:32 46.54024 22.71437 34973 ft 502 kts 143°
2026-05-06 15:32 46.48607 22.77856 34965 ft 502 kts 143°
2026-05-06 15:33 46.43194 22.84251 34972 ft 502 kts 143°
2026-05-06 15:33 46.37803 22.90605 34968 ft 503 kts 143°
2026-05-06 15:34 46.32367 22.96993 34961 ft 503 kts 143°
2026-05-06 15:34 46.26925 23.03374 34961 ft 503 kts 143°
2026-05-06 15:35 46.21481 23.09740 34958 ft 504 kts 143°
2026-05-06 15:35 46.16023 23.16104 34950 ft 504 kts 143°
2026-05-06 15:36 46.10553 23.22466 34945 ft 505 kts 143°
2026-05-06 15:36 46.05082 23.28813 34939 ft 505 kts 143°
2026-05-06 15:37 45.99603 23.35152 34940 ft 505 kts 143°
2026-05-06 15:37 45.94125 23.41474 34942 ft 505 kts 143°
2026-05-06 15:38 45.89565 23.46723 34949 ft 506 kts 143°
2026-05-06 15:38 45.84068 23.53037 34954 ft 506 kts 143°
2026-05-06 15:39 45.77661 23.60373 34953 ft 508 kts 143°
2026-05-06 15:39 45.73026 23.65667 34955 ft 508 kts 143°
2026-05-06 15:40 45.67531 23.71929 34956 ft 508 kts 143°
2026-05-06 15:40 45.61994 23.78223 34963 ft 508 kts 143°
2026-05-06 15:41 45.56460 23.84496 34970 ft 508 kts 143°
2026-05-06 15:41 45.50921 23.90759 34980 ft 507 kts 143°
2026-05-06 15:42 45.45380 23.97008 34977 ft 507 kts 143°
2026-05-06 15:42 45.39841 24.03238 34984 ft 507 kts 143°
2026-05-06 15:43 45.34328 24.09423 34984 ft 508 kts 143°
2026-05-06 15:43 45.28780 24.15632 34988 ft 507 kts 143°
2026-05-06 15:44 45.23224 24.21835 34990 ft 508 kts 143°
2026-05-06 15:44 45.17659 24.28031 34985 ft 509 kts 143°
2026-05-06 15:45 45.12085 24.34222 34981 ft 510 kts 143°
2026-05-06 15:45 45.06499 24.40408 34988 ft 510 kts 143°
2026-05-06 15:46 45.00892 24.46603 34978 ft 511 kts 143°
2026-05-06 15:46 44.95285 24.52782 34980 ft 512 kts 143°
2026-05-06 15:47 44.89695 24.58927 34978 ft 513 kts 143°
2026-05-06 15:47 44.84056 24.65110 34980 ft 513 kts 143°
2026-05-06 15:48 44.78418 24.71277 34974 ft 514 kts 143°
2026-05-06 15:48 44.72765 24.77444 34979 ft 514 kts 143°
2026-05-06 15:49 44.67100 24.83609 34981 ft 515 kts 143°
2026-05-06 15:49 44.61424 24.89769 34981 ft 515 kts 143°
2026-05-06 15:50 44.55752 24.95910 34977 ft 515 kts 143°
2026-05-06 15:50 44.50063 25.02053 34980 ft 516 kts 143°
2026-05-06 15:51 44.44376 25.08179 34978 ft 516 kts 143°
2026-05-06 15:51 44.38724 25.14252 34977 ft 516 kts 143°
2026-05-06 15:52 44.33015 25.20371 34977 ft 517 kts 143°
2026-05-06 15:52 44.27268 25.26515 34975 ft 517 kts 143°
2026-05-06 15:53 44.21553 25.32610 34979 ft 517 kts 142°
2026-05-06 15:53 44.15863 25.38662 34979 ft 518 kts 142°
2026-05-06 15:54 44.10133 25.44742 34975 ft 518 kts 142°
2026-05-06 15:54 44.04391 25.50820 34972 ft 519 kts 142°
2026-05-06 15:55 43.98644 25.56888 34974 ft 519 kts 142°
2026-05-06 15:55 43.92902 25.62936 34972 ft 519 kts 142°
2026-05-06 15:56 43.87133 25.68998 34979 ft 520 kts 142°
2026-05-06 15:56 43.81361 25.75050 34980 ft 520 kts 142°
2026-05-06 15:57 43.75777 25.81407 34979 ft 520 kts 134°
2026-05-06 15:57 43.71044 25.88935 34987 ft 518 kts 124°
2026-05-06 15:58 43.66838 25.97031 34993 ft 518 kts 123°
2026-05-06 15:58 43.62629 26.05118 34996 ft 519 kts 124°
2026-05-06 15:59 43.58403 26.13125 34994 ft 520 kts 124°
2026-05-06 15:59 43.54123 26.21171 35005 ft 520 kts 124°
2026-05-06 16:00 43.49840 26.29198 35003 ft 520 kts 124°
2026-05-06 16:00 43.45551 26.37222 35010 ft 519 kts 124°
2026-05-06 16:01 43.41268 26.45217 35015 ft 519 kts 124°
2026-05-06 16:01 43.36981 26.53196 35015 ft 518 kts 124°
2026-05-06 16:02 43.32689 26.61163 35023 ft 518 kts 124°
2026-05-06 16:02 43.28431 26.69046 35029 ft 517 kts 124°
2026-05-06 16:03 43.24137 26.76973 35027 ft 517 kts 124°
2026-05-06 16:03 43.19845 26.84877 35035 ft 517 kts 124°
2026-05-06 16:04 43.15547 26.92773 35049 ft 517 kts 124°
2026-05-06 16:04 43.11236 27.00672 35036 ft 517 kts 124°
2026-05-06 16:05 43.06889 27.08505 35041 ft 517 kts 126°
2026-05-06 16:05 43.02451 27.16231 35048 ft 516 kts 126°
2026-05-06 16:06 42.98009 27.23932 35060 ft 516 kts 126°
2026-05-06 16:06 42.93579 27.31631 35063 ft 515 kts 126°
2026-05-06 16:07 42.89164 27.39305 35068 ft 513 kts 126°
2026-05-06 16:07 42.84751 27.46956 35077 ft 512 kts 126°
2026-05-06 16:08 42.80342 27.54577 35074 ft 512 kts 126°
2026-05-06 16:08 42.75931 27.62182 35076 ft 511 kts 126°
2026-05-06 16:09 42.71551 27.69714 35082 ft 511 kts 126°
2026-05-06 16:09 42.67137 27.77287 35081 ft 510 kts 126°
2026-05-06 16:10 42.62717 27.84849 35085 ft 510 kts 126°
2026-05-06 16:10 42.58298 27.92391 35087 ft 510 kts 126°
2026-05-06 16:11 42.53872 27.99929 35091 ft 510 kts 126°
2026-05-06 16:11 42.49441 28.07454 35086 ft 511 kts 126°
2026-05-06 16:12 42.45003 28.14966 35095 ft 511 kts 126°
2026-05-06 16:12 42.40587 28.22424 35089 ft 511 kts 126°
2026-05-06 16:13 42.36111 28.29968 35095 ft 511 kts 126°
2026-05-06 16:13 42.31688 28.37406 35088 ft 511 kts 126°
2026-05-06 16:14 42.27235 28.44875 35097 ft 511 kts 126°
2026-05-06 16:14 42.22770 28.52344 35092 ft 511 kts 126°
2026-05-06 16:15 42.18302 28.59803 35096 ft 511 kts 127°
2026-05-06 16:15 42.13835 28.67242 35094 ft 511 kts 127°
2026-05-06 16:16 42.09365 28.74667 35096 ft 510 kts 126°
2026-05-06 16:16 42.05326 28.82489 35105 ft 507 kts 119°
2026-05-06 16:17 42.01597 28.90551 35103 ft 507 kts 119°
2026-05-06 16:17 41.97861 28.98604 35101 ft 507 kts 120°
2026-05-06 16:18 41.94100 29.06615 35102 ft 507 kts 120°
2026-05-06 16:18 41.90316 29.14615 35100 ft 507 kts 120°
2026-05-06 16:19 41.86536 29.22584 35087 ft 506 kts 120°
2026-05-06 16:19 41.82778 29.30490 35089 ft 505 kts 120°
2026-05-06 16:20 41.78999 29.38423 35094 ft 504 kts 120°
2026-05-06 16:20 41.75224 29.46328 35094 ft 503 kts 120°
2026-05-06 16:21 41.71443 29.54224 35099 ft 503 kts 120°
2026-05-06 16:21 41.67662 29.62098 35097 ft 503 kts 120°
2026-05-06 16:22 41.63878 29.69959 35097 ft 502 kts 121°
2026-05-06 16:22 41.60094 29.77800 35095 ft 502 kts 121°
2026-05-06 16:23 41.56300 29.85641 35095 ft 502 kts 121°
2026-05-06 16:23 41.52503 29.93468 35098 ft 502 kts 121°
2026-05-06 16:24 41.49344 29.99965 35100 ft 502 kts 121°
2026-05-06 16:24 41.45536 30.07776 35095 ft 502 kts 121°
2026-05-06 16:25 41.41105 30.16843 35099 ft 502 kts 121°
2026-05-06 16:25 41.37904 30.23375 35096 ft 503 kts 121°
2026-05-06 16:26 41.34078 30.31165 35093 ft 503 kts 121°
2026-05-06 16:26 41.30244 30.38951 35093 ft 503 kts 121°
2026-05-06 16:27 41.26406 30.46727 35091 ft 503 kts 121°
2026-05-06 16:27 41.22560 30.54497 35089 ft 504 kts 121°
2026-05-06 16:28 41.18731 30.62216 35093 ft 504 kts 121°
2026-05-06 16:28 41.14865 30.69989 35091 ft 504 kts 121°
2026-05-06 16:29 41.10994 30.77752 35092 ft 505 kts 121°
2026-05-06 16:29 41.07122 30.85498 35095 ft 505 kts 121°
2026-05-06 16:30 41.03864 30.92002 35099 ft 505 kts 121°
2026-05-06 16:30 40.99346 31.01002 35098 ft 506 kts 121°
2026-05-06 16:31 40.95478 31.08797 35101 ft 506 kts 121°
2026-05-06 16:31 40.91631 31.16590 35098 ft 506 kts 121°
2026-05-06 16:32 40.87778 31.24362 35105 ft 506 kts 121°
2026-05-06 16:32 40.83915 31.32127 35057 ft 505 kts 122°
2026-05-06 16:33 40.80045 31.39878 35096 ft 507 kts 122°
2026-05-06 16:34 40.74200 31.51555 35106 ft 510 kts 122°
2026-05-06 16:34 40.70277 31.59367 35105 ft 511 kts 122°
2026-05-06 16:35 40.66339 31.67188 35110 ft 513 kts 122°
2026-05-06 16:35 40.62389 31.75018 35107 ft 514 kts 122°
2026-05-06 16:36 40.58453 31.82799 35090 ft 514 kts 122°
2026-05-06 16:36 40.54448 31.90592 35089 ft 514 kts 123°
2026-05-06 16:37 40.50410 31.98348 35086 ft 514 kts 123°
2026-05-06 16:37 40.46380 32.06098 35092 ft 513 kts 123°
2026-05-06 16:38 40.42349 32.13846 35086 ft 513 kts 123°
2026-05-06 16:38 40.38316 32.21572 35081 ft 513 kts 123°
2026-05-06 16:39 40.34276 32.29298 35093 ft 514 kts 123°
2026-05-06 16:39 40.30231 32.37018 35075 ft 514 kts 123°
2026-05-06 16:40 40.26179 32.44733 35084 ft 515 kts 123°
2026-05-06 16:40 40.22105 32.52470 35084 ft 516 kts 123°
2026-05-06 16:41 40.18028 32.60195 35088 ft 516 kts 123°
2026-05-06 16:41 40.13974 32.67860 35092 ft 516 kts 123°
2026-05-06 16:42 40.09914 32.75594 35100 ft 516 kts 120°
2026-05-06 16:42 40.08288 32.79765 35101 ft 513 kts 109°
2026-05-06 16:42 40.07202 32.83946 35110 ft 511 kts 102°
2026-05-06 16:43 40.06215 32.93045 35118 ft 506 kts 90°
2026-05-06 16:43 40.05832 33.02227 35114 ft 507 kts 90°
2026-05-06 16:44 40.05425 33.11425 35106 ft 508 kts 90°
2026-05-06 16:44 40.04962 33.20644 35108 ft 509 kts 90°
2026-05-06 16:45 40.04464 33.29875 35099 ft 510 kts 91°
2026-05-06 16:45 40.03958 33.39056 35083 ft 510 kts 91°
2026-05-06 16:46 40.03448 33.48281 35091 ft 509 kts 91°
2026-05-06 16:46 40.02933 33.57499 35085 ft 509 kts 91°
2026-05-06 16:47 40.02411 33.66705 35082 ft 509 kts 91°
2026-05-06 16:47 40.01881 33.75913 35080 ft 508 kts 91°
2026-05-06 16:48 40.01346 33.85104 35090 ft 508 kts 91°
2026-05-06 16:48 40.00803 33.94297 35086 ft 508 kts 91°
2026-05-06 16:49 40.00253 34.03473 35076 ft 508 kts 91°
2026-05-06 16:49 39.99696 34.12647 35085 ft 507 kts 92°
2026-05-06 16:50 39.99132 34.21816 35078 ft 507 kts 92°
2026-05-06 16:50 39.98561 34.30988 35073 ft 507 kts 92°
2026-05-06 16:51 39.97982 34.40160 35075 ft 507 kts 92°
2026-05-06 16:51 39.97397 34.49326 35085 ft 507 kts 92°
2026-05-06 16:52 39.96808 34.58433 35084 ft 507 kts 92°
2026-05-06 16:52 39.96207 34.67599 35081 ft 508 kts 92°
2026-05-06 16:53 39.95599 34.76774 35086 ft 508 kts 92°
2026-05-06 16:53 39.94984 34.85931 35081 ft 508 kts 93°
2026-05-06 16:54 39.94361 34.95112 35077 ft 508 kts 93°
2026-05-06 16:54 39.93731 35.04289 35085 ft 508 kts 93°
2026-05-06 16:55 39.93094 35.13458 35074 ft 508 kts 93°
2026-05-06 16:55 39.92449 35.22633 35079 ft 508 kts 93°
2026-05-06 16:56 39.91796 35.31816 35076 ft 508 kts 93°
2026-05-06 16:56 39.91138 35.40994 35076 ft 509 kts 93°
2026-05-06 16:57 39.90454 35.50166 35073 ft 509 kts 94°
2026-05-06 16:57 39.89739 35.59335 35079 ft 509 kts 94°
2026-05-06 16:58 39.89022 35.68447 35092 ft 509 kts 94°
2026-05-06 16:58 39.88297 35.77625 35089 ft 510 kts 94°
2026-05-06 16:59 39.87566 35.86800 35102 ft 510 kts 94°
2026-05-06 16:59 39.86826 35.96000 35103 ft 510 kts 94°
2026-05-06 17:00 39.86080 36.05187 35110 ft 510 kts 94°
2026-05-06 17:00 39.85331 36.14308 35110 ft 510 kts 95°
2026-05-06 17:01 39.84570 36.23489 35105 ft 510 kts 95°
2026-05-06 17:01 39.83801 36.32672 35112 ft 510 kts 95°
2026-05-06 17:02 39.83026 36.41844 35112 ft 510 kts 95°
2026-05-06 17:02 39.82243 36.51029 35118 ft 510 kts 95°
2026-05-06 17:03 39.81453 36.60201 35102 ft 510 kts 95°
2026-05-06 17:03 39.80656 36.69375 35121 ft 510 kts 95°
2026-05-06 17:04 39.79853 36.78547 35141 ft 510 kts 96°
2026-05-06 17:04 39.79132 36.87733 35136 ft 510 kts 91°
2026-05-06 17:05 39.79419 36.96925 35138 ft 508 kts 82°
2026-05-06 17:05 39.80249 37.06049 35127 ft 508 kts 82°
2026-05-06 17:06 39.81044 37.15133 35121 ft 509 kts 83°
2026-05-06 17:06 39.81794 37.24293 35113 ft 509 kts 83°
2026-05-06 17:07 39.82529 37.33452 35103 ft 509 kts 83°
2026-05-06 17:07 39.83262 37.42611 35109 ft 509 kts 83°
2026-05-06 17:08 39.83976 37.51767 35107 ft 509 kts 84°
2026-05-06 17:08 39.84675 37.60949 35109 ft 509 kts 84°
2026-05-06 17:09 39.85367 37.70106 35105 ft 509 kts 84°
2026-05-06 17:09 39.86054 37.79246 35223 ft 502 kts 85°
2026-05-06 17:10 39.86712 37.88114 35109 ft 492 kts 85°
2026-05-06 17:10 39.87364 37.96985 35109 ft 492 kts 86°
2026-05-06 17:11 39.88008 38.05861 35105 ft 493 kts 86°
2026-05-06 17:11 39.88648 38.14765 35109 ft 495 kts 86°
2026-05-06 17:12 39.89285 38.23717 35111 ft 498 kts 86°
2026-05-06 17:12 39.89919 38.32725 35108 ft 500 kts 86°
2026-05-06 17:13 39.90547 38.41749 35086 ft 501 kts 86°
2026-05-06 17:13 39.91168 38.50775 35099 ft 501 kts 86°
2026-05-06 17:14 39.91679 38.58286 35096 ft 500 kts 86°
2026-05-06 17:14 39.92287 38.67310 35092 ft 500 kts 87°
2026-05-06 17:15 39.92888 38.76329 35092 ft 499 kts 87°
2026-05-06 17:15 39.93481 38.85325 35099 ft 498 kts 87°
2026-05-06 17:16 39.93869 38.94338 35089 ft 497 kts 91°
2026-05-06 17:16 39.93983 39.03343 35084 ft 497 kts 91°
2026-05-06 17:17 39.94133 39.12351 35088 ft 497 kts 91°
2026-05-06 17:17 39.94283 39.21363 35070 ft 497 kts 91°
2026-05-06 17:18 39.94421 39.30376 35091 ft 497 kts 91°
2026-05-06 17:18 39.94552 39.39381 35084 ft 497 kts 91°
2026-05-06 17:19 39.94676 39.48352 35094 ft 497 kts 91°
2026-05-06 17:19 39.94794 39.57311 35089 ft 498 kts 91°
2026-05-06 17:19 39.94818 39.61832 39907 ft 499 kts 94°
2026-05-06 17:20 39.94799 39.66408 39538 ft 510 kts 91°
2026-05-06 17:20 39.94859 39.71062 39367 ft 516 kts 90°
2026-05-06 17:20 39.94938 39.75728 39134 ft 513 kts 90°
2026-05-06 17:20 39.95007 39.80349 38935 ft 505 kts 91°
2026-05-06 17:21 39.95054 39.84894 38698 ft 498 kts 91°
2026-05-06 17:21 39.95089 39.89385 38389 ft 495 kts 91°
2026-05-06 17:21 39.95120 39.93860 38101 ft 491 kts 91°
2026-05-06 17:21 39.95157 39.98284 37835 ft 487 kts 91°
2026-05-06 17:22 39.95197 40.02698 37563 ft 490 kts 91°
2026-05-06 17:22 39.95237 40.07172 37309 ft 497 kts 91°
2026-05-06 17:22 39.95276 40.11705 37081 ft 503 kts 91°
2026-05-06 17:22 39.95313 40.16280 36853 ft 506 kts 91°
2026-05-06 17:23 39.95349 40.20863 36582 ft 505 kts 91°
2026-05-06 17:23 39.95383 40.25434 36315 ft 505 kts 92°
2026-05-06 17:23 39.95416 40.30007 36067 ft 504 kts 92°
2026-05-06 17:23 39.95445 40.34564 35832 ft 502 kts 92°
2026-05-06 17:24 39.95473 40.39108 35628 ft 500 kts 92°
2026-05-06 17:24 39.95499 40.43634 35419 ft 498 kts 92°
2026-05-06 17:24 39.95522 40.48130 35275 ft 495 kts 92°
2026-05-06 17:25 39.95563 40.57095 35154 ft 498 kts 92°
2026-05-06 17:25 39.95600 40.66191 35107 ft 504 kts 92°
2026-05-06 17:26 39.95630 40.75339 35112 ft 504 kts 92°
2026-05-06 17:26 39.95659 40.84487 35108 ft 504 kts 92°
2026-05-06 17:27 39.95681 40.93621 35107 ft 504 kts 92°
2026-05-06 17:27 39.95694 41.02764 35100 ft 504 kts 92°
2026-05-06 17:28 39.95701 41.11894 35096 ft 504 kts 93°
2026-05-06 17:28 39.95728 41.20982 35097 ft 504 kts 91°
2026-05-06 17:29 39.96325 41.30105 35108 ft 506 kts 86°
2026-05-06 17:29 39.97057 41.39243 35112 ft 507 kts 87°
2026-05-06 17:30 39.97750 41.48392 35105 ft 507 kts 87°
2026-05-06 17:30 39.98410 41.57542 35110 ft 507 kts 87°
2026-05-06 17:31 39.99063 41.66710 35117 ft 508 kts 88°
2026-05-06 17:31 39.99714 41.75898 35106 ft 508 kts 88°
2026-05-06 17:32 40.00368 41.85017 35108 ft 509 kts 87°
2026-05-06 17:32 40.01026 41.94218 35106 ft 509 kts 88°
2026-05-06 17:33 40.01676 42.03422 35102 ft 509 kts 88°
2026-05-06 17:33 40.02318 42.12628 35102 ft 510 kts 88°
2026-05-06 17:34 40.02952 42.21847 35105 ft 510 kts 88°
2026-05-06 17:34 40.03585 42.31174 35109 ft 522 kts 88°
2026-05-06 17:35 40.04225 42.40671 35100 ft 526 kts 88°
2026-05-06 17:35 40.04843 42.50119 35095 ft 526 kts 88°
2026-05-06 17:36 40.05727 42.64367 35092 ft 524 kts 88°
2026-05-06 17:36 40.06308 42.73831 35093 ft 523 kts 88°
2026-05-06 17:37 40.06881 42.83280 35094 ft 521 kts 88°
2026-05-06 17:37 40.07448 42.92716 35084 ft 521 kts 89°
2026-05-06 17:38 40.08006 43.02149 35092 ft 521 kts 89°
2026-05-06 17:38 40.08558 43.11580 35091 ft 521 kts 89°
2026-05-06 17:39 40.09102 43.21014 35076 ft 521 kts 89°
2026-05-06 17:39 40.09638 43.30465 35085 ft 522 kts 89°
2026-05-06 17:40 40.10170 43.39934 35070 ft 523 kts 89°
2026-05-06 17:40 40.10685 43.49402 35066 ft 523 kts 89°
2026-05-06 17:41 40.11196 43.58880 35041 ft 523 kts 89°
2026-05-06 17:41 40.11799 43.68304 35038 ft 526 kts 84°
2026-05-06 17:42 40.13107 43.77731 35021 ft 528 kts 81°
2026-05-06 17:42 40.14513 43.87148 35028 ft 528 kts 82°
2026-05-06 17:43 40.15876 43.96592 35025 ft 529 kts 82°
2026-05-06 17:43 40.17203 44.06064 35024 ft 529 kts 82°
2026-05-06 17:44 40.18517 44.15541 35003 ft 530 kts 82°
2026-05-06 17:44 40.19828 44.25021 34995 ft 530 kts 83°
2026-05-06 17:45 40.21134 44.34521 34996 ft 530 kts 83°
2026-05-06 17:45 40.22432 44.44016 34994 ft 531 kts 83°
2026-05-06 17:46 40.23724 44.53531 34991 ft 531 kts 83°
2026-05-06 17:46 40.25029 44.63048 35006 ft 531 kts 82°
2026-05-06 17:47 40.26394 44.72547 35031 ft 531 kts 82°
2026-05-06 17:47 40.27762 44.82051 35041 ft 532 kts 82°
2026-05-06 17:48 40.29114 44.91580 35048 ft 532 kts 82°
2026-05-06 17:48 40.30451 45.01103 35050 ft 531 kts 82°
2026-05-06 17:49 40.31776 45.10609 35057 ft 530 kts 83°
2026-05-06 17:49 40.33095 45.20124 35056 ft 530 kts 83°
2026-05-06 17:50 40.34408 45.29647 35059 ft 531 kts 83°
2026-05-06 17:50 40.35712 45.39170 35062 ft 531 kts 83°
2026-05-06 17:51 40.37003 45.48657 35059 ft 532 kts 83°
2026-05-06 17:51 40.38296 45.58213 35067 ft 532 kts 83°
2026-05-06 17:52 40.39595 45.67780 35054 ft 533 kts 82°
2026-05-06 17:52 40.40992 45.77340 35062 ft 533 kts 82°
2026-05-06 17:53 40.42410 45.86892 35070 ft 533 kts 82°
2026-05-06 17:53 40.43805 45.96453 35058 ft 533 kts 83°
2026-05-06 17:54 40.45181 46.06021 35065 ft 534 kts 83°
2026-05-06 17:54 40.46540 46.15541 35073 ft 534 kts 83°
2026-05-06 17:55 40.47905 46.25145 35077 ft 535 kts 83°
2026-05-06 17:55 40.49264 46.34779 35073 ft 537 kts 83°
2026-05-06 17:56 40.50620 46.44442 35070 ft 538 kts 83°
2026-05-06 17:56 40.51971 46.54122 35065 ft 539 kts 83°
2026-05-06 17:57 40.53316 46.63836 35059 ft 541 kts 83°
2026-05-06 17:57 40.54655 46.73570 35064 ft 542 kts 83°
2026-05-06 17:58 40.55990 46.83330 35052 ft 543 kts 83°
2026-05-06 17:58 40.57095 46.91457 35057 ft 543 kts 83°
2026-05-06 17:59 40.58416 47.01231 35054 ft 543 kts 83°
2026-05-06 17:59 40.59834 47.12633 35048 ft 540 kts 89°
2026-05-06 18:00 40.59587 47.22396 35060 ft 531 kts 103°
2026-05-06 18:00 40.58215 47.30244 35055 ft 523 kts 112°
2026-05-06 18:01 40.56105 47.39404 34972 ft 522 kts 113°
2026-05-06 18:01 40.55049 47.43968 34738 ft 522 kts 113°
2026-05-06 18:01 40.53999 47.48555 34459 ft 524 kts 112°
2026-05-06 18:02 40.52973 47.53088 34165 ft 526 kts 112°
2026-05-06 18:02 40.51922 47.57770 33879 ft 527 kts 112°
2026-05-06 18:02 40.50887 47.62397 33601 ft 528 kts 112°
2026-05-06 18:02 40.49854 47.67023 33311 ft 527 kts 112°
2026-05-06 18:03 40.48833 47.71585 33008 ft 528 kts 112°
2026-05-06 18:03 40.47794 47.76210 32667 ft 528 kts 112°
2026-05-06 18:03 40.46752 47.80833 32354 ft 528 kts 112°
2026-05-06 18:03 40.45693 47.85523 32032 ft 528 kts 112°
2026-05-06 18:04 40.44660 47.90078 31507 ft 529 kts 112°
2026-05-06 18:04 40.43600 47.94738 30498 ft 534 kts 112°
2026-05-06 18:04 40.42544 47.99383 29847 ft 527 kts 112°
2026-05-06 18:04 40.41499 48.03980 29175 ft 521 kts 112°
2026-05-06 18:05 40.40470 48.08500 28547 ft 514 kts 112°
2026-05-06 18:05 40.39452 48.12962 27966 ft 507 kts 112°
2026-05-06 18:05 40.38444 48.17362 27377 ft 501 kts 112°
2026-05-06 18:05 40.37443 48.21717 26788 ft 496 kts 112°
2026-05-06 18:06 40.36451 48.26020 26231 ft 491 kts 112°
2026-05-06 18:06 40.35467 48.30279 25663 ft 486 kts 112°
2026-05-06 18:06 40.34491 48.34499 25110 ft 482 kts 112°
2026-05-06 18:06 40.33519 48.38689 24556 ft 478 kts 111°
2026-05-06 18:07 40.32555 48.42843 24011 ft 475 kts 111°
2026-05-06 18:07 40.31597 48.46960 23411 ft 472 kts 111°
2026-05-06 18:07 40.30642 48.51062 22795 ft 468 kts 111°
2026-05-06 18:07 40.29694 48.55125 22224 ft 464 kts 111°
2026-05-06 18:08 40.28756 48.59142 21682 ft 459 kts 111°
2026-05-06 18:08 40.27824 48.63127 21135 ft 455 kts 111°
2026-05-06 18:08 40.26899 48.67071 20609 ft 451 kts 111°
2026-05-06 18:08 40.25980 48.70983 20084 ft 447 kts 111°
2026-05-06 18:09 40.25082 48.74800 19578 ft 444 kts 111°
2026-05-06 18:09 40.24174 48.78654 19051 ft 441 kts 111°
2026-05-06 18:09 40.23272 48.82470 18533 ft 438 kts 111°
2026-05-06 18:09 40.22374 48.86269 17967 ft 435 kts 111°
2026-05-06 18:10 40.21481 48.90037 17393 ft 432 kts 111°
2026-05-06 18:10 40.20597 48.93763 16873 ft 427 kts 111°
2026-05-06 18:10 40.19718 48.97466 16346 ft 423 kts 111°
2026-05-06 18:10 40.18848 49.01123 15854 ft 419 kts 111°
2026-05-06 18:11 40.17986 49.04742 15357 ft 415 kts 110°
2026-05-06 18:11 40.17128 49.08335 14846 ft 412 kts 110°
2026-05-06 18:11 40.16275 49.11903 14355 ft 408 kts 110°
2026-05-06 18:11 40.15431 49.15426 13856 ft 405 kts 110°
2026-05-06 18:12 40.14591 49.18931 13309 ft 402 kts 110°
2026-05-06 18:12 40.13758 49.22403 12781 ft 399 kts 110°
2026-05-06 18:12 40.12932 49.25836 12310 ft 394 kts 110°
2026-05-06 18:12 40.12117 49.29221 12094 ft 385 kts 110°
2026-05-06 18:13 40.11504 49.32526 12060 ft 367 kts 97°
2026-05-06 18:13 40.11601 49.35751 12063 ft 346 kts 86°
2026-05-06 18:13 40.11813 49.38813 12047 ft 331 kts 87°
2026-05-06 18:13 40.11994 49.41726 12045 ft 316 kts 87°
2026-05-06 18:14 40.12159 49.44587 12058 ft 314 kts 88°
2026-05-06 18:14 40.12315 49.47434 12058 ft 314 kts 88°
2026-05-06 18:14 40.12465 49.50244 12071 ft 314 kts 88°
2026-05-06 18:14 40.12613 49.53085 12061 ft 314 kts 88°
2026-05-06 18:15 40.12760 49.55933 12071 ft 314 kts 88°
2026-05-06 18:15 40.12906 49.58779 12074 ft 315 kts 88°
2026-05-06 18:15 40.13051 49.61634 12071 ft 315 kts 88°
2026-05-06 18:15 40.13197 49.64490 12068 ft 315 kts 88°
2026-05-06 18:16 40.13343 49.67388 12070 ft 316 kts 88°
2026-05-06 18:16 40.13483 49.70185 12057 ft 307 kts 88°
2026-05-06 18:16 40.13587 49.72888 12031 ft 288 kts 97°
2026-05-06 18:16 40.13080 49.75291 12073 ft 269 kts 124°
2026-05-06 18:17 40.12010 49.77248 12074 ft 263 kts 140°
2026-05-06 18:17 40.10709 49.78919 12077 ft 262 kts 143°
2026-05-06 18:17 40.09379 49.80556 12082 ft 263 kts 143°
2026-05-06 18:17 40.08047 49.82209 12080 ft 265 kts 142°
2026-05-06 18:18 40.06714 49.83876 12078 ft 265 kts 141°
2026-05-06 18:18 40.05612 49.85807 12080 ft 268 kts 123°
2026-05-06 18:18 40.04807 49.88015 12072 ft 271 kts 119°
2026-05-06 18:18 40.04028 49.90258 12080 ft 271 kts 120°
2026-05-06 18:19 40.03226 49.92489 12080 ft 272 kts 121°
2026-05-06 18:19 40.02406 49.94720 12080 ft 273 kts 121°
2026-05-06 18:19 40.01648 49.96984 11938 ft 274 kts 109°
2026-05-06 18:19 40.01344 49.99460 11616 ft 277 kts 98°
2026-05-06 18:20 40.01195 50.01959 11207 ft 275 kts 97°
2026-05-06 18:20 40.01036 50.04441 10789 ft 274 kts 98°
2026-05-06 18:20 40.00855 50.06909 10387 ft 273 kts 98°
2026-05-06 18:20 40.00668 50.09366 9993 ft 270 kts 96°
2026-05-06 18:21 40.00808 50.11789 9471 ft 271 kts 77°
2026-05-06 18:21 40.01281 50.14158 9057 ft 268 kts 73°
2026-05-06 18:21 40.01771 50.16487 8684 ft 265 kts 74°
2026-05-06 18:21 40.02230 50.18773 8307 ft 262 kts 74°
2026-05-06 18:22 40.02673 50.21054 8003 ft 257 kts 75°
2026-05-06 18:22 40.03141 50.23290 7546 ft 253 kts 65°
2026-05-06 18:22 40.04010 50.25292 7208 ft 249 kts 52°
2026-05-06 18:22 40.05018 50.27176 7087 ft 255 kts 51°
2026-05-06 18:23 40.06026 50.29072 6881 ft 253 kts 51°
2026-05-06 18:23 40.07064 50.30868 6545 ft 242 kts 38°
2026-05-06 18:23 40.08484 50.31855 6131 ft 228 kts
2026-05-06 18:23 40.09984 50.31810 5868 ft 213 kts 343°
2026-05-06 18:24 40.11344 50.31150 5706 ft 206 kts 324°
2026-05-06 18:24 40.12458 50.29945 5541 ft 211 kts 314°
2026-05-06 18:24 40.13511 50.28585 5353 ft 214 kts 313°
2026-05-06 18:24 40.14554 50.27214 5164 ft 211 kts 313°
2026-05-06 18:25 40.15586 50.25860 5000 ft 209 kts 313°
2026-05-06 18:25 40.16609 50.24523 4823 ft 207 kts 314°
2026-05-06 18:25 40.17531 50.23323 4664 ft 205 kts 314°
2026-05-06 18:25 40.18545 50.22005 4502 ft 205 kts 314°
2026-05-06 18:26 40.19570 50.20675 4335 ft 210 kts 314°
2026-05-06 18:26 40.20613 50.19325 4167 ft 212 kts 315°
2026-05-06 18:26 40.21662 50.17968 3995 ft 211 kts 315°
2026-05-06 18:26 40.22703 50.16623 3833 ft 208 kts 315°
2026-05-06 18:27 40.23727 50.15301 3657 ft 207 kts 315°
2026-05-06 18:27 40.24753 50.13975 3503 ft 206 kts 315°
2026-05-06 18:27 40.25730 50.12713 3315 ft 187 kts 315°
2026-05-06 18:27 40.26609 50.11577 3148 ft 170 kts 316°
2026-05-06 18:28 40.27432 50.10515 3067 ft 166 kts 316°
2026-05-06 18:28 40.28257 50.09448 2920 ft 167 kts 316°
2026-05-06 18:28 40.29085 50.08378 2792 ft 167 kts 317°
2026-05-06 18:28 40.29927 50.07340 2645 ft 165 kts 326°
2026-05-06 18:29 40.30999 50.06941 2522 ft 163 kts 355°
2026-05-06 18:29 40.32147 50.06794 2397 ft 167 kts 352°
2026-05-06 18:29 40.33292 50.06605 2243 ft 164 kts 354°
2026-05-06 18:29 40.34419 50.06522 2128 ft 160 kts 358°
2026-05-06 18:30 40.35536 50.06490 2081 ft 162 kts 358°
2026-05-06 18:30 40.36659 50.06470 1837 ft 156 kts 358°
2026-05-06 18:30 40.37691 50.06454 1649 ft 140 kts 358°
2026-05-06 18:30 40.38629 50.06439 1459 ft 132 kts 359°
2026-05-06 18:31 40.39551 50.06422 1283 ft 133 kts 359°
2026-05-06 18:31 40.40469 50.06403 1106 ft 134 kts 359°
2026-05-06 18:31 40.41402 50.06390 945 ft 134 kts 359°
2026-05-06 18:31 40.42341 50.06378 732 ft 136 kts 359°
2026-05-06 18:32 40.43290 50.06353 571 ft 133 kts 358°
2026-05-06 18:32 40.44214 50.06335 424 ft 136 kts 359°
2026-05-06 18:32 40.45171 50.06327 212 ft 139 kts 359°
2026-05-06 18:32 40.46136 50.06316 30 ft 130 kts 359°
2026-05-06 18:33 40.46944 50.06303 17 ft 97 kts 359°
2026-05-06 18:33 40.47460 50.06297 15 ft 46 kts 359°
2026-05-06 18:33 40.47888 50.06287 18 ft 78 kts 359°
2026-05-06 18:33 40.48327 50.06284 16 ft 52 kts 360°
2026-05-06 18:34 40.48498 50.06206 17 ft 10 kts 279°
2026-05-06 18:34 40.48492 50.06115 18 ft 10 kts 249°
2026-05-06 18:34 40.48474 50.06088 18 ft 0 kts 213°
2026-05-06 18:35 40.48462 50.06081 19 ft 5 kts 204°
2026-05-06 18:35 40.48389 50.06071 19 ft 21 kts 181°
2026-05-06 18:36 40.48236 50.06072 19 ft 20 kts 180°
2026-05-06 18:36 40.48094 50.06073 19 ft 20 kts 179°
2026-05-06 18:36 40.47953 50.06076 19 ft 20 kts 179°
2026-05-06 18:36 40.47813 50.06079 19 ft 20 kts 179°
2026-05-06 18:37 40.47669 50.06082 19 ft 20 kts 179°
2026-05-06 18:37 40.47576 50.06083 19 ft 20 kts 180°
2026-05-06 18:37 40.47386 50.06083 19 ft 20 kts 180°
2026-05-06 18:37 40.47245 50.06088 19 ft 20 kts 178°
2026-05-06 18:38 40.47122 50.06089 19 ft 16 kts 180°
2026-05-06 18:38 40.47011 50.06089 19 ft 16 kts 179°
2026-05-06 18:38 40.46901 50.06092 19 ft 16 kts 179°
2026-05-06 18:38 40.46789 50.06094 19 ft 16 kts 179°
2026-05-06 18:39 40.46680 50.06096 19 ft 16 kts 179°
2026-05-06 18:39 40.46581 50.06097 19 ft 13 kts 180°
2026-05-06 18:39 40.46504 50.06097 19 ft 11 kts 179°
2026-05-06 18:40 40.46357 50.06098 19 ft 11 kts 180°
2026-05-06 18:40 40.46284 50.06099 19 ft 11 kts 179°
2026-05-06 18:40 40.46210 50.06100 19 ft 11 kts 179°
2026-05-06 18:40 40.46145 50.06073 19 ft 6 kts 239°
2026-05-06 18:41 40.46144 50.06064 19 ft 1 kts 249°
2026-05-06 18:41 40.46142 50.06057 19 ft 1 kts 253°
2026-05-06 18:41 40.46136 50.06031 19 ft 6 kts 253°
2026-05-06 18:41 40.46103 50.05962 19 ft 10 kts 212°
2026-05-06 18:42 40.46029 50.05963 19 ft 11 kts 177°
2026-05-06 18:42 40.45952 50.05966 19 ft 11 kts 179°
2026-05-06 18:42 40.45875 50.05959 19 ft 11 kts 200°
2026-05-06 18:42 40.45844 50.05898 19 ft 3 kts 259°
2026-05-06 18:43 40.45842 50.05871 20 ft 3 kts 265°
2026-05-06 18:43 40.45842 50.05861 19 ft 0 kts 266°